This is the latest recevied weather packets stored in our database for station/object SQ2LXT-10. If no packets are shown the sender has not sent any weather packets the latest 10 day(s).
| Time | Temp. | Humidity | Pressure | Rain* | Wind** | Luminosity | Snow |
|---|---|---|---|---|---|---|---|
| 1777420798 | 0° C | 100% | 1023.1 hPa | - | - | - | - |
| 1777419898 | 0° C | 100% | 1023 hPa | - | - | - | - |
| 1777418998 | 0° C | 100% | 1023 hPa | - | - | - | - |
| 1777418098 | 0° C | 100% | 1023 hPa | - | - | - | - |
| 1777417198 | 0.56° C | 99% | 1022.8 hPa | - | - | - | - |
| 1777416297 | 0.56° C | 91% | 1022.7 hPa | - | - | - | - |
| 1777415398 | 0.56° C | 81% | 1022.6 hPa | - | - | - | - |
| 1777414497 | 0.56° C | 75% | 1022.6 hPa | - | - | - | - |
| 1777413597 | 0.56° C | 67% | 1022.4 hPa | - | - | - | - |
| 1777412697 | 1.11° C | 60% | 1022.3 hPa | - | - | - | - |
| 1777411797 | 1.11° C | 56% | 1022.3 hPa | - | - | - | - |
| 1777410897 | 1.67° C | 53% | 1022 hPa | - | - | - | - |
| 1777409997 | 2.22° C | 51% | 1022 hPa | - | - | - | - |
| 1777409097 | 2.22° C | 50% | 1021.9 hPa | - | - | - | - |
| 1777408197 | 2.78° C | 48% | 1021.8 hPa | - | - | - | - |
| 1777407297 | 3.33° C | 47% | 1021.7 hPa | - | - | - | - |
| 1777406397 | 3.89° C | 46% | 1021.5 hPa | - | - | - | - |
| 1777405497 | 3.89° C | 47% | 1021.4 hPa | - | - | - | - |
| 1777404597 | 4.44° C | 45% | 1021.4 hPa | - | - | - | - |
| 1777403697 | 5° C | 47% | 1021.3 hPa | - | - | - | - |
| 1777402797 | 5° C | 47% | 1021.1 hPa | - | - | - | - |
| 1777401897 | 5.56° C | 46% | 1021 hPa | - | - | - | - |
| 1777400997 | 6.11° C | 47% | 1021 hPa | - | - | - | - |
| 1777400097 | 6.67° C | 45% | 1020.8 hPa | - | - | - | - |
| 1777399196 | 7.22° C | 44% | 1020.6 hPa | - | - | - | - |
* Rain since midnight (hover to see other rain measurements)
** Current wind speed in m/s (hover to see current wind gust speed)